Time,TemperatureF,DewpointF,PressureIn,WindDirection,WindDirectionDegrees,WindSpeedMPH,WindSpeedGustMPH,Humidity,HourlyPrecipIn,Conditions,Clouds,dailyrainin,SoftwareType,DateUTC
2013-05-31 00:01:00,68.0,61.0,-100.00,SE,125,13.0,19.0,76,0.00,,,0.00,,2013-05-31 00:01:00,
2013-05-31 00:11:00,68.0,61.0,-100.00,SE,130,14.0,21.0,76,0.00,,,0.00,,2013-05-31 00:11:00,
2013-05-31 00:21:00,68.0,61.0,-100.00,SE,130,14.0,21.0,76,0.00,,,0.00,,2013-05-31 00:21:00,
2013-05-31 00:32:00,68.0,61.0,-100.00,ESE,120,14.0,18.0,76,0.00,,,0.00,,2013-05-31 00:32:00,
2013-05-31 00:42:00,68.0,61.0,-100.00,SE,130,14.0,20.0,76,0.00,,,0.00,,2013-05-31 00:42:00,
2013-05-31 00:52:00,68.0,61.0,-100.00,ESE,120,12.0,19.0,76,0.00,,,0.00,,2013-05-31 00:52:00,
2013-05-31 01:01:00,68.0,61.0,-100.00,SE,135,12.0,17.0,76,0.00,,,0.00,,2013-05-31 01:01:00,
2013-05-31 01:12:00,68.0,61.0,-100.00,SE,130,12.0,18.0,77,0.00,,,0.00,,2013-05-31 01:12:00,
2013-05-31 01:21:00,68.0,61.0,-100.00,SE,130,13.0,19.0,77,0.00,,,0.00,,2013-05-31 01:21:00,
2013-05-31 01:32:00,67.0,61.0,-100.00,SE,125,15.0,20.0,77,0.00,,,0.00,,2013-05-31 01:32:00,
2013-05-31 01:42:00,67.0,61.0,-100.00,SE,125,16.0,20.0,78,0.00,,,0.00,,2013-05-31 01:42:00,
2013-05-31 01:52:00,67.0,61.0,-100.00,SE,125,16.0,18.0,78,0.00,,,0.00,,2013-05-31 01:52:00,
2013-05-31 02:02:00,67.0,61.0,-100.00,ESE,120,15.0,21.0,78,0.00,,,0.00,,2013-05-31 02:02:00,
2013-05-31 02:11:00,67.0,61.0,-100.00,SE,125,14.0,20.0,78,0.00,,,0.00,,2013-05-31 02:11:00,
2013-05-31 02:21:00,67.0,61.0,-100.00,ESE,115,14.0,19.0,78,0.00,,,0.00,,2013-05-31 02:21:00,
2013-05-31 02:32:00,67.0,61.0,-100.00,ESE,110,11.0,17.0,78,0.00,,,0.00,,2013-05-31 02:32:00,
2013-05-31 02:41:00,67.0,61.0,-100.00,SE,125,14.0,18.0,78,0.00,,,0.00,,2013-05-31 02:41:00,
2013-05-31 02:51:00,67.0,61.0,-100.00,SE,135,17.0,21.0,78,0.00,,,0.00,,2013-05-31 02:51:00,
2013-05-31 03:01:00,67.0,59.0,-100.00,SSE,150,13.0,20.0,78,0.00,,,0.00,,2013-05-31 03:01:00,
2013-05-31 03:11:00,66.0,59.0,-100.00,South,170,15.0,22.0,78,0.00,,,0.00,,2013-05-31 03:11:00,
2013-05-31 03:21:00,63.0,57.0,-100.00,SSW,195,16.0,26.0,81,0.00,,,0.00,,2013-05-31 03:21:00,
2013-05-31 03:33:00,61.0,57.0,-100.00,South,175,12.0,22.0,87,0.00,,,0.00,,2013-05-31 03:33:00,
2013-05-31 03:43:00,60.0,57.0,-100.00,SSE,155,11.0,16.0,91,0.00,,,0.00,,2013-05-31 03:43:00,
2013-05-31 03:53:00,59.0,57.0,-100.00,SSE,150,11.0,15.0,92,0.00,,,0.00,,2013-05-31 03:53:00,
2013-05-31 04:02:00,59.0,57.0,-100.00,West,275,1.0,7.0,92,0.00,,,0.00,,2013-05-31 04:02:00,
2013-05-31 04:12:00,60.0,57.0,-100.00,North,5,2.0,4.0,91,0.00,,,0.00,,2013-05-31 04:12:00,
2013-05-31 04:22:00,60.0,57.0,-100.00,SSE,155,1.0,2.0,88,0.00,,,0.00,,2013-05-31 04:22:00,
2013-05-31 04:32:00,60.0,57.0,-100.00,SE,125,2.0,4.0,88,0.00,,,0.00,,2013-05-31 04:32:00,
2013-05-31 04:42:00,61.0,57.0,-100.00,ESE,115,6.0,7.0,86,0.00,,,0.00,,2013-05-31 04:42:00,
2013-05-31 04:52:00,62.0,57.0,-100.00,ESE,105,5.0,9.0,85,0.00,,,0.00,,2013-05-31 04:52:00,
2013-05-31 05:12:00,62.0,59.0,-100.00,ESE,115,9.0,12.0,87,0.00,,,0.00,,2013-05-31 05:12:00,
2013-05-31 05:22:00,63.0,59.0,-100.00,ESE,120,11.0,17.0,87,0.00,,,0.00,,2013-05-31 05:22:00,
2013-05-31 05:31:00,63.0,61.0,-100.00,SE,125,13.0,17.0,90,0.00,,,0.00,,2013-05-31 05:31:00,
2013-05-31 05:42:00,64.0,61.0,-100.00,SE,145,13.0,17.0,90,0.00,,,0.00,,2013-05-31 05:42:00,
2013-05-31 05:52:00,63.0,61.0,-100.00,South,185,20.0,26.0,91,0.00,,,0.00,,2013-05-31 05:52:00,
2013-05-31 06:02:00,65.0,59.0,-100.00,South,185,21.0,29.0,80,0.00,,,0.00,,2013-05-31 06:02:00,
2013-05-31 06:12:00,66.0,61.0,-100.00,SSE,165,21.0,29.0,82,0.00,,,0.00,,2013-05-31 06:12:00,
2013-05-31 06:21:00,66.0,61.0,-100.00,SSE,165,21.0,29.0,82,0.00,,,0.00,,2013-05-31 06:21:00,
2013-05-31 06:31:00,64.0,63.0,-100.00,SE,140,14.0,21.0,91,0.00,,,0.00,,2013-05-31 06:31:00,
2013-05-31 06:41:00,64.0,63.0,-100.00,SE,135,12.0,18.0,91,0.00,,,0.00,,2013-05-31 06:41:00,
2013-05-31 06:51:00,63.0,61.0,-100.00,SE,125,8.0,12.0,91,0.00,,,0.00,,2013-05-31 06:51:00,
2013-05-31 07:02:00,63.0,61.0,-100.00,SE,125,7.0,9.0,91,0.00,,,0.00,,2013-05-31 07:02:00,
2013-05-31 07:11:00,63.0,57.0,-100.00,SSE,150,14.0,20.0,80,0.00,,,0.00,,2013-05-31 07:11:00,
2013-05-31 07:32:00,63.0,55.0,-100.00,SSE,150,11.0,14.0,76,0.00,,,0.00,,2013-05-31 07:32:00,
2013-05-31 07:52:00,62.0,55.0,-100.00,SSE,155,10.0,17.0,79,0.00,,,0.00,,2013-05-31 07:52:00,
2013-05-31 08:02:00,62.0,57.0,-100.00,SE,145,14.0,19.0,80,0.00,,,0.00,,2013-05-31 08:02:00,
2013-05-31 08:11:00,62.0,57.0,-100.00,SE,145,14.0,19.0,80,0.00,,,0.00,,2013-05-31 08:11:00,
2013-05-31 08:21:00,62.0,54.0,-100.00,South,175,16.0,22.0,74,0.00,,,0.00,,2013-05-31 08:21:00,
2013-05-31 08:42:00,60.0,54.0,-100.00,SSE,165,13.0,17.0,78,0.00,,,0.00,,2013-05-31 08:42:00,
2013-05-31 08:51:00,60.0,54.0,-100.00,SSE,165,13.0,16.0,80,0.00,,,0.00,,2013-05-31 08:51:00,
2013-05-31 09:01:00,60.0,54.0,-100.00,SSE,165,13.0,16.0,80,0.00,,,0.00,,2013-05-31 09:01:00,
2013-05-31 09:11:00,59.0,55.0,-100.00,SSE,150,12.0,16.0,84,0.00,,,0.00,,2013-05-31 09:11:00,
2013-05-31 09:21:00,59.0,55.0,-100.00,SSE,155,12.0,16.0,85,0.00,,,0.00,,2013-05-31 09:21:00,
2013-05-31 09:32:00,59.0,55.0,-100.00,SSE,150,12.0,16.0,85,0.00,,,0.00,,2013-05-31 09:32:00,
2013-05-31 09:43:00,59.0,55.0,-100.00,SE,145,11.0,16.0,87,0.00,,,0.00,,2013-05-31 09:43:00,
2013-05-31 10:02:00,59.0,55.0,-100.00,SSE,155,12.0,15.0,87,0.00,,,0.00,,2013-05-31 10:02:00,
2013-05-31 10:22:00,58.0,55.0,-100.00,SSE,155,11.0,17.0,88,0.00,,,0.00,,2013-05-31 10:22:00,
2013-05-31 10:33:00,58.0,55.0,-100.00,SSE,155,11.0,17.0,88,0.00,,,0.00,,2013-05-31 10:33:00,
2013-05-31 10:42:00,58.0,55.0,-100.00,SSE,155,11.0,17.0,88,0.00,,,0.00,,2013-05-31 10:42:00,
2013-05-31 10:52:00,57.0,54.0,-100.00,SSE,155,12.0,15.0,90,0.00,,,0.00,,2013-05-31 10:52:00,
2013-05-31 11:42:00,56.0,54.0,-100.00,SE,140,11.0,17.0,89,0.00,,,0.00,,2013-05-31 11:42:00,
2013-05-31 11:52:00,56.0,54.0,-100.00,SE,140,11.0,17.0,89,0.00,,,0.00,,2013-05-31 11:52:00,
2013-05-31 12:01:00,56.0,54.0,-100.00,SE,140,11.0,17.0,89,0.00,,,0.00,,2013-05-31 12:01:00,
2013-05-31 12:11:00,56.0,54.0,-100.00,SE,140,11.0,17.0,89,0.00,,,0.00,,2013-05-31 12:11:00,
2013-05-31 13:52:00,59.0,50.0,-100.00,SSE,165,20.0,26.0,71,0.00,,,0.00,,2013-05-31 13:52:00,
2013-05-31 14:02:00,59.0,50.0,-100.00,South,170,18.0,30.0,72,0.00,,,0.00,,2013-05-31 14:02:00,
2013-05-31 14:11:00,59.0,50.0,-100.00,SSE,165,20.0,26.0,72,0.00,,,0.00,,2013-05-31 14:11:00,
2013-05-31 14:21:00,59.0,50.0,-100.00,South,170,19.0,29.0,72,0.00,,,0.00,,2013-05-31 14:21:00,
2013-05-31 14:32:00,59.0,50.0,-100.00,SSE,165,21.0,29.0,72,0.00,,,0.00,,2013-05-31 14:32:00,
2013-05-31 14:41:00,59.0,50.0,-100.00,South,175,22.0,27.0,71,0.00,,,0.00,,2013-05-31 14:41:00,
2013-05-31 14:52:00,60.0,50.0,-100.00,SSE,165,19.0,27.0,71,0.00,,,0.00,,2013-05-31 14:52:00,
2013-05-31 15:01:00,59.0,52.0,-100.00,South,175,19.0,29.0,75,0.00,,,0.00,,2013-05-31 15:01:00,
2013-05-31 15:11:00,59.0,52.0,-100.00,South,180,22.0,27.0,77,0.00,,,0.00,,2013-05-31 15:11:00,
2013-05-31 15:21:00,59.0,52.0,-100.00,South,180,17.0,27.0,78,0.00,,,0.00,,2013-05-31 15:21:00,
2013-05-31 15:33:00,59.0,52.0,-100.00,South,180,18.0,26.0,78,0.00,,,0.00,,2013-05-31 15:33:00,
2013-05-31 15:43:00,59.0,52.0,-100.00,South,180,17.0,29.0,78,0.00,,,0.00,,2013-05-31 15:43:00,
2013-05-31 15:53:00,59.0,52.0,-100.00,South,185,22.0,29.0,79,0.00,,,0.00,,2013-05-31 15:53:00,
2013-05-31 16:03:00,59.0,52.0,-100.00,South,175,20.0,28.0,79,0.00,,,0.00,,2013-05-31 16:03:00,
2013-05-31 16:12:00,59.0,54.0,-100.00,South,185,21.0,28.0,79,0.00,,,0.00,,2013-05-31 16:12:00,
2013-05-31 16:22:00,60.0,54.0,-100.00,South,175,14.0,26.0,79,0.00,,,0.00,,2013-05-31 16:22:00,
2013-05-31 16:33:00,60.0,54.0,-100.00,South,175,23.0,29.0,77,0.00,,,0.00,,2013-05-31 16:33:00,
2013-05-31 16:42:00,60.0,52.0,-100.00,South,180,27.0,32.0,76,0.00,,,0.00,,2013-05-31 16:42:00,
2013-05-31 16:52:00,60.0,54.0,-100.00,South,190,21.0,29.0,77,0.00,,,0.00,,2013-05-31 16:52:00,
2013-05-31 17:02:00,60.0,54.0,-100.00,SSW,195,24.0,32.0,77,0.00,,,0.00,,2013-05-31 17:02:00,
2013-05-31 17:12:00,60.0,54.0,-100.00,South,185,21.0,30.0,78,0.00,,,0.00,,2013-05-31 17:12:00,
2013-05-31 17:22:00,60.0,52.0,-100.00,South,185,21.0,31.0,75,0.00,,,0.00,,2013-05-31 17:22:00,
2013-05-31 17:32:00,61.0,54.0,-100.00,South,190,24.0,34.0,75,0.00,,,0.00,,2013-05-31 17:32:00,
2013-05-31 17:42:00,60.0,54.0,-100.00,South,185,21.0,29.0,77,0.00,,,0.00,,2013-05-31 17:42:00,
2013-05-31 17:52:00,60.0,54.0,-100.00,SSW,200,24.0,34.0,76,0.00,,,0.00,,2013-05-31 17:52:00,
2013-05-31 18:01:00,59.0,54.0,-100.00,South,185,26.0,30.0,80,0.00,,,0.00,,2013-05-31 18:01:00,
2013-05-31 18:11:00,60.0,54.0,-100.00,South,190,20.0,29.0,80,0.00,,,0.00,,2013-05-31 18:11:00,
2013-05-31 18:22:00,60.0,54.0,-100.00,South,185,19.0,34.0,80,0.00,,,0.00,,2013-05-31 18:22:00,
2013-05-31 18:31:00,60.0,54.0,-100.00,South,185,21.0,31.0,80,0.00,,,0.00,,2013-05-31 18:31:00,
2013-05-31 18:42:00,59.0,54.0,-100.00,South,185,19.0,26.0,84,0.00,,,0.00,,2013-05-31 18:42:00,
2013-05-31 18:52:00,60.0,54.0,-100.00,South,185,17.0,22.0,80,0.00,,,0.00,,2013-05-31 18:52:00,
2013-05-31 19:02:00,60.0,54.0,-100.00,SSW,195,14.0,21.0,79,0.00,,,0.00,,2013-05-31 19:02:00,
2013-05-31 19:11:00,61.0,54.0,-100.00,SSW,195,19.0,27.0,77,0.00,,,0.00,,2013-05-31 19:11:00,
2013-05-31 19:22:00,61.0,54.0,-100.00,South,185,19.0,25.0,77,0.00,,,0.00,,2013-05-31 19:22:00,
2013-05-31 19:32:00,61.0,54.0,-100.00,SSW,205,14.0,23.0,78,0.00,,,0.00,,2013-05-31 19:32:00,
2013-05-31 19:42:00,61.0,54.0,-100.00,SSW,195,14.0,19.0,78,0.00,,,0.00,,2013-05-31 19:42:00,
2013-05-31 19:52:00,61.0,54.0,-100.00,South,180,14.0,22.0,75,0.00,,,0.00,,2013-05-31 19:52:00,
2013-05-31 20:01:00,61.0,54.0,-100.00,South,185,17.0,23.0,76,0.00,,,0.00,,2013-05-31 20:01:00,
2013-05-31 20:11:00,61.0,54.0,-100.00,South,180,14.0,22.0,75,0.00,,,0.00,,2013-05-31 20:11:00,
2013-05-31 20:22:00,62.0,54.0,-100.00,South,180,16.0,22.0,71,0.00,,,0.00,,2013-05-31 20:22:00,
2013-05-31 20:32:00,62.0,54.0,-100.00,South,185,16.0,21.0,72,0.00,,,0.00,,2013-05-31 20:32:00,
2013-05-31 20:41:00,62.0,54.0,-100.00,SSW,195,18.0,23.0,70,0.00,,,0.00,,2013-05-31 20:41:00,
2013-05-31 20:52:00,62.0,52.0,-100.00,South,185,20.0,24.0,68,0.00,,,0.00,,2013-05-31 20:52:00,
2013-05-31 21:01:00,62.0,52.0,-100.00,South,180,19.0,26.0,66,0.00,,,0.00,,2013-05-31 21:01:00,
2013-05-31 21:11:00,62.0,52.0,-100.00,South,185,14.0,23.0,69,0.00,,,0.00,,2013-05-31 21:11:00,
2013-05-31 21:22:00,62.0,52.0,-100.00,South,175,15.0,23.0,70,0.00,,,0.00,,2013-05-31 21:22:00,
2013-05-31 21:32:00,62.0,52.0,-100.00,South,175,14.0,20.0,70,0.00,,,0.00,,2013-05-31 21:32:00,
2013-05-31 21:42:00,62.0,54.0,-100.00,South,175,11.0,16.0,71,0.00,,,0.00,,2013-05-31 21:42:00,
2013-05-31 21:53:00,63.0,54.0,-100.00,South,170,11.0,13.0,71,0.00,,,0.00,,2013-05-31 21:53:00,
2013-05-31 22:02:00,63.0,54.0,-100.00,SSW,195,14.0,19.0,71,0.00,,,0.00,,2013-05-31 22:02:00,
2013-05-31 22:12:00,63.0,52.0,-100.00,SSW,195,14.0,20.0,68,0.00,,,0.00,,2013-05-31 22:12:00,
2013-05-31 22:22:00,63.0,54.0,-100.00,SSW,200,14.0,23.0,69,0.00,,,0.00,,2013-05-31 22:22:00,
2013-05-31 22:33:00,63.0,54.0,-100.00,SSW,195,12.0,20.0,68,0.00,,,0.00,,2013-05-31 22:33:00,
2013-05-31 22:42:00,64.0,54.0,-100.00,South,190,13.0,21.0,67,0.00,,,0.00,,2013-05-31 22:42:00,
2013-05-31 22:52:00,64.0,54.0,-100.00,SSW,205,12.0,19.0,67,0.00,,,0.00,,2013-05-31 22:52:00,
2013-05-31 23:02:00,64.0,52.0,-100.00,SW,215,17.0,23.0,66,0.00,,,0.00,,2013-05-31 23:02:00,
2013-05-31 23:12:00,64.0,52.0,-100.00,SSW,200,13.0,23.0,64,0.00,,,0.00,,2013-05-31 23:12:00,
2013-05-31 23:21:00,64.0,52.0,-100.00,SSW,205,14.0,22.0,65,0.00,,,0.00,,2013-05-31 23:21:00,
2013-05-31 23:32:00,64.0,52.0,-100.00,South,190,16.0,23.0,66,0.00,,,0.00,,2013-05-31 23:32:00,
2013-05-31 23:42:00,64.0,52.0,-100.00,SSW,195,16.0,22.0,67,0.00,,,0.00,,2013-05-31 23:42:00,
2013-05-31 23:52:00,63.0,52.0,-100.00,SW,215,14.0,24.0,66,0.00,,,0.00,,2013-05-31 23:52:00,